Starlink 33565

operational
NORAD ID: 62288 Int'l Des: 2024-237 Owner: SPXS Country: US Constellation: starlink
LEOCIRCULAR

关于 Starlink 33565

正在加载描述...

实时位置

正在加载3D地球...

即将过境

高度历史

Altitude vs Time

uPlot chart will show altitude changes over time

两行轨道根数

1 62288U 24237X 26071.05070447 .00022691 00000-0 83104-3 0 9996
2 62288 43.0026 191.7283 0002444 269.8614 90.1958 15.27598789 71689
Epoch: Mar 12, 2026 • Age: 17 hours

当前状态

高度 485.5 km
速度 7.63 km/s
星下点 33.65°N, 109.57°W
发射日期 Dec 8, 2024
运行时间 1.2 years
类型 internet

技术详情

分类 Payload
质量 530.00 kg
干质量 500.00 kg
总质量 530.00 kg
长度 0.30 m
直径 4.10 m
跨度 29.00 m
形状 Box + pan
制造商 SPXS
平台类型 Starlink V2MO
阶段状态 In Orbit
所有者/国家 SPXS/US

大型星座

Loading constellations...